| time (UTC) | temp F | wind direction | speed MPH | gust MPH | rain 1hr in | rain 24hr in | rain mn in | humidity % | barometer mb |
| 20260503211051 | 47 | 245 | 4.0 | 5.0 | 0.00 | 0.06 | 0.06 | 83 | 1009.4 |
| 20260503210549 | 47 | 234 | 4.0 | 5.0 | 0.00 | 0.06 | 0.06 | 83 | 1009.1 |
| 20260503210044 | 47 | 218 | 4.0 | 5.0 | 0.00 | 0.06 | 0.06 | 85 | 1008.9 |
| 20260503205541 | 47 | 239 | 3.0 | 3.0 | 0.00 | 0.06 | 0.06 | 85 | 1008.9 |
| 20260503205038 | 47 | 230 | 3.0 | 3.0 | 0.00 | 0.06 | 0.06 | 86 | 1009.1 |
| 20260503204534 | 47 | 271 | 5.0 | 7.0 | 0.07 | 0.06 | 0.06 | 86 | 1009.1 |
| 20260503204031 | 46 | 266 | 4.0 | 5.0 | 0.07 | 0.06 | 0.06 | 86 | 1009.1 |
| 20260503203529 | 46 | 266 | 2.0 | 2.0 | 0.05 | 0.05 | 0.05 | 86 | 1009.1 |
| 20260503203026 | 46 | 258 | 3.0 | 3.0 | 0.12 | 0.05 | 0.05 | 86 | 1009.4 |
| 20260503202524 | 46 | 238 | 7.0 | 8.0 | 0.07 | 0.04 | 0.04 | 85 | 1009.3 |
| 20260503202021 | 47 | 267 | 7.0 | 9.0 | 0.05 | 0.03 | 0.03 | 85 | 1009.4 |
| 20260503201520 | 47 | 299 | 4.0 | 6.0 | 0.05 | 0.03 | 0.03 | 84 | 1009.7 |
| 20260503201016 | 47 | 234 | 4.0 | 5.0 | 0.00 | 0.02 | 0.02 | 82 | 1009.7 |
| 20260503200512 | 47 | 217 | 2.0 | 2.0 | 0.00 | 0.02 | 0.02 | 82 | 1009.6 |
| 20260503200009 | 47 | 286 | 5.0 | 7.0 | 0.00 | 0.02 | 0.02 | 82 | 1009.7 |
| 20260503195507 | 47 | 313 | 5.0 | 8.0 | 0.07 | 0.02 | 0.02 | 83 | 1009.7 |
| 20260503195003 | 48 | 217 | 3.0 | 3.0 | 0.07 | 0.02 | 0.02 | 81 | 1010.0 |
| 20260503194501 | 48 | 263 | 5.0 | 7.0 | 0.05 | 0.01 | 0.01 | 79 | 1009.9 |
| 20260503193955 | 48 | 249 | 3.0 | 6.0 | 0.05 | 0.01 | 0.01 | 78 | 1009.8 |
| 20260503193451 | 49 | 232 | 3.0 | 3.0 | 0.00 | 0.00 | 0.00 | 77 | 1009.9 |
| 20260503192947 | 49 | 310 | 3.0 | 5.0 | 0.00 | 0.00 | 0.00 | 76 | 1010.0 |
| 20260503192443 | 49 | 278 | 3.0 | 3.0 | 0.00 | 0.00 | 0.00 | 76 | 1009.9 |
| 20260503191939 | 49 | 251 | 2.0 | 3.0 | 0.00 | 0.00 | 0.00 | 75 | 1010.0 |
| 20260503191437 | 49 | 223 | 5.0 | 7.0 | 0.00 | 0.00 | 0.00 | 74 | 1009.9 |
| 20260503190933 | 51 | 254 | 9.0 | 13.0 | 0.00 | 0.00 | 0.00 | 66 | 1010.2 |
| 20260503190431 | 53 | 276 | 11.0 | 15.0 | 0.00 | 0.00 | 0.00 | 57 | 1009.8 |
| 20260503185927 | 53 | 305 | 7.0 | 8.0 | 0.00 | 0.00 | 0.00 | 54 | 1009.8 |
| 20260503185424 | 54 | 239 | 11.0 | 17.0 | 0.00 | 0.00 | 0.00 | 53 | 1009.6 |
| 20260503184923 | 54 | 242 | 3.0 | 5.0 | 0.00 | 0.00 | 0.00 | 52 | 1009.9 |
| 20260503184420 | 55 | 183 | 6.0 | 7.0 | 0.00 | 0.00 | 0.00 | 49 | 1009.7 |
| 20260503183916 | 56 | 235 | 9.0 | 13.0 | 0.00 | 0.00 | 0.00 | 45 | 1009.4 |
| 20260503183413 | 56 | 235 | 9.0 | 13.0 | 0.00 | 0.00 | 0.00 | 43 | 1009.3 |
| 20260503182910 | 57 | 259 | 6.0 | 7.0 | 0.00 | 0.00 | 0.00 | 42 | 1009.3 |
| 20260503182409 | 56 | 245 | 7.0 | 8.0 | 0.00 | 0.00 | 0.00 | 44 | 1009.3 |
| 20260503181906 | 56 | 290 | 8.0 | 9.0 | 0.00 | 0.00 | 0.00 | 43 | 1009.3 |
| 20260503181403 | 57 | 236 | 10.0 | 10.0 | 0.00 | 0.00 | 0.00 | 44 | 1009.4 |
| 20260503180859 | 57 | 220 | 4.0 | 5.0 | 0.00 | 0.00 | 0.00 | 44 | 1009.5 |
| 20260503180357 | 56 | 222 | 6.0 | 9.0 | 0.00 | 0.00 | 0.00 | 45 | 1009.4 |
| 20260503175853 | 57 | 303 | 6.0 | 9.0 | 0.00 | 0.00 | 0.00 | 42 | 1009.4 |
| 20260503175351 | 55 | 287 | 4.0 | 6.0 | 0.00 | 0.00 | 0.00 | 43 | 1009.6 |
| 20260503174847 | 56 | 244 | 5.0 | 7.0 | 0.00 | 0.00 | 0.00 | 42 | 1009.5 |
| 20260503174345 | 56 | 266 | 9.0 | 13.0 | 0.00 | 0.00 | 0.00 | 40 | 1009.7 |
| 20260503173845 | 57 | 178 | 12.0 | 16.0 | 0.00 | 0.00 | 0.00 | 40 | 1009.6 |
| 20260503173342 | 56 | 246 | 5.0 | 7.0 | 0.00 | 0.00 | 0.00 | 44 | 1009.7 |
| 20260503172838 | 55 | 269 | 10.0 | 15.0 | 0.00 | 0.00 | 0.00 | 42 | 1009.8 |
| 20260503172336 | 55 | 264 | 6.0 | 8.0 | 0.00 | 0.00 | 0.00 | 42 | 1009.9 |
| 20260503171832 | 55 | 228 | 7.0 | 10.0 | 0.00 | 0.00 | 0.00 | 42 | 1010.2 |
| 20260503171329 | 54 | 302 | 6.0 | 7.0 | 0.00 | 0.00 | 0.00 | 42 | 1010.2 |
| 20260503170826 | 54 | 204 | 4.0 | 6.0 | 0.00 | 0.00 | 0.00 | 44 | 1010.1 |
| 20260503170323 | 54 | 240 | 11.0 | 15.0 | 0.00 | 0.00 | 0.00 | 44 | 1010.2 |
| 20260503150715 | 50 | 248 | 10.0 | 13.0 | 0.00 | 0.00 | 0.00 | 46 | 1011.3 |
| 20260503150211 | 50 | 236 | 10.0 | 13.0 | 0.00 | 0.00 | 0.00 | 45 | 1011.3 |
| 20260503140136 | 46 | 172 | 8.0 | 11.0 | 0.00 | 0.00 | 0.00 | 51 | 1012.2 |
| 20260503131105 | 42 | 270 | 3.0 | 3.0 | 0.00 | 0.00 | 0.00 | 62 | 1012.9 |
| 20260503130603 | 41 | 248 | 4.0 | 5.0 | 0.00 | 0.00 | 0.00 | 65 | 1012.9 |
| 20260503110453 | 31 | 234 | 1.0 | 2.0 | 0.00 | 0.00 | 0.00 | 82 | 1013.1 |
| 20260503090338 | 32 | 206 | 1.0 | 2.0 | 0.00 | 0.00 | 0.00 | 77 | 1013.1 |
| 20260503081306 | 32 | 215 | 2.0 | 2.0 | 0.00 | 0.00 | 0.00 | 75 | 1013.2 |
| 20260503080802 | 32 | 212 | 1.0 | 2.0 | 0.00 | 0.00 | 0.00 | 74 | 1013.2 |
| 20260503080259 | 32 | 248 | 2.0 | 2.0 | 0.00 | 0.00 | 0.00 | 74 | 1013.1 |
| 20260503072736 | 32 | 215 | 2.0 | 2.0 | 0.00 | 0.00 | 0.00 | 73 | 1013.3 |
| 20260503072233 | 32 | 196 | 1.0 | 1.0 | 0.00 | 0.00 | 0.00 | 73 | 1013.3 |
| 20260503071729 | 32 | 207 | 3.0 | 3.0 | 0.00 | 0.00 | 0.00 | 73 | 1013.3 |
| 20260503071226 | 32 | 210 | 1.0 | 1.0 | 0.00 | 0.00 | 0.00 | 73 | 1013.2 |
| 20260503070722 | 32 | 196 | 1.0 | 2.0 | 0.00 | 0.00 | 0.00 | 74 | 1013.4 |
| 20260503070221 | 32 | 203 | 1.0 | 1.0 | 0.00 | 0.00 | 0.00 | 75 | 1013.3 |
| 20260503060145 | 30 | 182 | 0.0 | 0.0 | 0.00 | 0.00 | 0.00 | 73 | 1014.1 |
| 20260503054632 | 30 | 191 | 0.0 | 0.0 | 0.00 | 0.00 | 0.00 | 74 | 1014.2 |
| 20260503054129 | 31 | 186 | 0.0 | 0.0 | 0.00 | 0.00 | 0.00 | 76 | 1014.3 |
| 20260503053627 | 31 | 198 | 0.0 | 0.0 | 0.00 | 0.00 | 0.00 | 70 | 1014.3 |
| 20260503053126 | 30 | 201 | 0.0 | 0.0 | 0.00 | 0.00 | 0.00 | 69 | 1014.4 |
| 20260503052621 | 30 | 197 | 0.0 | 0.0 | 0.00 | 0.00 | 0.00 | 70 | 1014.6 |
| 20260503052118 | 30 | 198 | 0.0 | 0.0 | 0.00 | 0.00 | 0.00 | 70 | 1014.6 |
| 20260503051613 | 30 | 200 | 1.0 | 1.0 | 0.00 | 0.00 | 0.00 | 72 | 1014.7 |
| 20260503051112 | 30 | 191 | 0.0 | 0.0 | 0.00 | 0.00 | 0.00 | 74 | 1014.4 |
| 20260503050608 | 30 | 186 | 0.0 | 0.0 | 0.00 | 0.00 | 0.00 | 76 | 1014.6 |
| 20260503050105 | 29 | 186 | 0.0 | 0.0 | 0.00 | 0.00 | 0.00 | 74 | 1014.5 |
| 20260503045602 | 29 | 186 | 0.0 | 0.0 | 0.00 | 0.00 | 0.00 | 78 | 1014.9 |
| 20260503045059 | 29 | 186 | 0.0 | 0.0 | 0.00 | 0.00 | 0.00 | 77 | 1014.6 |
| 20260503044555 | 29 | 186 | 0.0 | 0.0 | 0.00 | 0.00 | 0.00 | 76 | 1014.7 |
| 20260503044053 | 29 | 186 | 0.0 | 0.0 | 0.00 | 0.00 | 0.00 | 76 | 1014.8 |
| 20260503043549 | 29 | 186 | 0.0 | 0.0 | 0.00 | 0.00 | 0.00 | 73 | 1014.7 |
| 20260503043046 | 29 | 186 | 0.0 | 0.0 | 0.00 | 0.00 | 0.00 | 74 | 1014.8 |
| 20260503042543 | 29 | 186 | 0.0 | 0.0 | 0.00 | 0.00 | 0.00 | 71 | 1014.6 |
| 20260503042039 | 29 | 186 | 0.0 | 0.0 | 0.00 | 0.00 | 0.00 | 71 | 1014.8 |
| 20260503041536 | 30 | 186 | 0.0 | 0.0 | 0.00 | 0.00 | 0.00 | 71 | 1014.7 |
| 20260503041034 | 31 | 186 | 0.0 | 0.0 | 0.00 | 0.00 | 0.00 | 71 | 1015.0 |
| 20260503040531 | 31 | 194 | 0.0 | 0.0 | 0.00 | 0.00 | 0.00 | 71 | 1014.8 |
| 20260503040028 | 30 | 190 | 0.0 | 0.0 | 0.00 | 0.00 | 0.00 | 76 | 1014.7 |
| 20260503035525 | 30 | 188 | 0.0 | 0.0 | 0.00 | 0.00 | 0.00 | 79 | 1015.0 |
| 20260503035022 | 30 | 191 | 0.0 | 0.0 | 0.00 | 0.00 | 0.00 | 76 | 1014.9 |
| 20260503034519 | 30 | 182 | 0.0 | 0.0 | 0.00 | 0.00 | 0.00 | 76 | 1014.9 |
| 20260503034017 | 30 | 186 | 0.0 | 0.0 | 0.00 | 0.00 | 0.00 | 76 | 1015.0 |
| 20260503033514 | 30 | 186 | 0.0 | 0.0 | 0.00 | 0.00 | 0.00 | 79 | 1015.1 |
| 20260503033012 | 29 | 186 | 0.0 | 0.0 | 0.00 | 0.00 | 0.00 | 78 | 1015.0 |
| 20260503032510 | 30 | 186 | 0.0 | 0.0 | 0.00 | 0.00 | 0.00 | 78 | 1015.0 |
| 20260503032008 | 30 | 186 | 0.0 | 0.0 | 0.00 | 0.00 | 0.00 | 76 | 1015.1 |
| 20260503031505 | 30 | 186 | 0.0 | 0.0 | 0.00 | 0.00 | 0.00 | 76 | 1015.1 |
| 20260503031002 | 31 | 188 | 0.0 | 0.0 | 0.00 | 0.00 | 0.00 | 80 | 1015.0 |
| 20260503030458 | 30 | 186 | 0.0 | 0.0 | 0.00 | 0.00 | 0.00 | 80 | 1015.0 |
| 20260503025955 | 30 | 189 | 0.0 | 0.0 | 0.00 | 0.00 | 0.00 | 78 | 1015.1 |
| 20260503025452 | 31 | 188 | 0.0 | 0.0 | 0.00 | 0.00 | 0.00 | 80 | 1015.3 |
| 20260503024949 | 31 | 188 | 0.0 | 0.0 | 0.00 | 0.00 | 0.00 | 77 | 1015.1 |
| 20260503024445 | 31 | 188 | 0.0 | 0.0 | 0.00 | 0.00 | 0.00 | 72 | 1015.1 |
| 20260503023943 | 31 | 188 | 0.0 | 0.0 | 0.00 | 0.00 | 0.00 | 73 | 1015.2 |
| 20260503023440 | 31 | 188 | 0.0 | 0.0 | 0.00 | 0.00 | 0.00 | 68 | 1015.2 |
| 20260503022937 | 32 | 191 | 0.0 | 0.0 | 0.00 | 0.00 | 0.00 | 68 | 1015.5 |
| 20260503022432 | 32 | 191 | 0.0 | 0.0 | 0.00 | 0.00 | 0.00 | 70 | 1015.3 |
| 20260503021928 | 32 | 191 | 0.0 | 0.0 | 0.00 | 0.00 | 0.00 | 71 | 1015.4 |
| 20260503021424 | 32 | 189 | 0.0 | 0.0 | 0.00 | 0.00 | 0.00 | 72 | 1015.2 |
| 20260503020922 | 33 | 191 | 0.0 | 0.0 | 0.00 | 0.00 | 0.00 | 70 | 1015.1 |
| 20260503020419 | 33 | 186 | 0.0 | 0.0 | 0.00 | 0.00 | 0.00 | 69 | 1015.0 |
| 20260503015915 | 33 | 183 | 0.0 | 0.0 | 0.00 | 0.00 | 0.00 | 67 | 1015.2 |
| 20260503015413 | 34 | 188 | 0.0 | 0.0 | 0.00 | 0.00 | 0.00 | 65 | 1015.2 |
| 20260503014908 | 35 | 186 | 0.0 | 0.0 | 0.00 | 0.00 | 0.00 | 65 | 1015.3 |
| 20260503014406 | 35 | 191 | 0.0 | 0.0 | 0.00 | 0.00 | 0.00 | 60 | 1015.4 |
| 20260503013904 | 35 | 188 | 0.0 | 0.0 | 0.00 | 0.00 | 0.00 | 55 | 1015.2 |
| 20260503013400 | 36 | 192 | 0.0 | 0.0 | 0.00 | 0.00 | 0.00 | 52 | 1015.0 |
| 20260503012857 | 36 | 185 | 0.0 | 0.0 | 0.00 | 0.00 | 0.00 | 52 | 1015.2 |
| 20260503012355 | 37 | 198 | 0.0 | 0.0 | 0.00 | 0.00 | 0.00 | 49 | 1015.0 |
| 20260503011852 | 37 | 198 | 0.0 | 0.0 | 0.00 | 0.00 | 0.00 | 49 | 1015.0 |
| 20260503011349 | 37 | 222 | 0.0 | 0.0 | 0.00 | 0.00 | 0.00 | 48 | 1015.0 |
| 20260503010845 | 37 | 196 | 0.0 | 0.0 | 0.00 | 0.00 | 0.00 | 48 | 1014.9 |
| 20260503010342 | 37 | 199 | 0.0 | 0.0 | 0.00 | 0.00 | 0.00 | 48 | 1015.1 |
| 20260503005839 | 37 | 200 | 0.0 | 0.0 | 0.00 | 0.00 | 0.00 | 48 | 1015.1 |
| 20260503005337 | 37 | 198 | 0.0 | 1.0 | 0.00 | 0.00 | 0.00 | 47 | 1015.0 |
| 20260503004833 | 37 | 209 | 1.0 | 1.0 | 0.00 | 0.00 | 0.00 | 47 | 1015.0 |
| 20260503004330 | 38 | 197 | 0.0 | 0.0 | 0.00 | 0.00 | 0.00 | 47 | 1014.8 |
| 20260503003828 | 38 | 191 | 0.0 | 0.0 | 0.00 | 0.00 | 0.00 | 45 | 1014.8 |
| 20260503003324 | 38 | 193 | 0.0 | 0.0 | 0.00 | 0.00 | 0.00 | 45 | 1014.9 |
| 20260503002821 | 38 | 190 | 0.0 | 0.0 | 0.00 | 0.00 | 0.00 | 44 | 1015.1 |
| 20260503002318 | 39 | 190 | 0.0 | 0.0 | 0.00 | 0.00 | 0.00 | 44 | 1014.7 |
| 20260503001815 | 39 | 173 | 0.0 | 1.0 | 0.00 | 0.00 | 0.00 | 42 | 1014.7 |
| 20260503001311 | 40 | 144 | 2.0 | 2.0 | 0.00 | 0.00 | 0.00 | 42 | 1014.7 |
| 20260503000809 | 40 | 153 | 0.0 | 1.0 | 0.00 | 0.00 | 0.00 | 40 | 1014.9 |
| 20260503000306 | 40 | 43 | 2.0 | 3.0 | 0.00 | 0.00 | 0.00 | 40 | 1014.8 |
| 20260502235803 | 41 | 50 | 1.0 | 2.0 | 0.00 | 0.00 | 0.00 | 39 | 1014.9 |
| 20260502235300 | 41 | 2 | 3.0 | 3.0 | 0.00 | 0.00 | 0.00 | 37 | 1014.7 |
| 20260502234757 | 41 | 348 | 2.0 | 2.0 | 0.00 | 0.00 | 0.00 | 36 | 1014.8 |
| 20260502234254 | 42 | 314 | 2.0 | 3.0 | 0.00 | 0.00 | 0.00 | 36 | 1014.6 |
| 20260502233750 | 42 | 356 | 3.0 | 3.0 | 0.00 | 0.00 | 0.00 | 38 | 1015.0 |
| 20260502233247 | 42 | 114 | 0.0 | 1.0 | 0.00 | 0.00 | 0.00 | 40 | 1014.8 |
| 20260502232743 | 42 | 137 | 2.0 | 2.0 | 0.00 | 0.00 | 0.00 | 38 | 1015.0 |
| 20260502232240 | 42 | 245 | 3.0 | 5.0 | 0.00 | 0.00 | 0.00 | 37 | 1014.8 |
| 20260502231737 | 43 | 352 | 1.0 | 1.0 | 0.00 | 0.00 | 0.00 | 38 | 1014.8 |
| 20260502231234 | 43 | 264 | 1.0 | 3.0 | 0.00 | 0.00 | 0.00 | 40 | 1014.7 |
| 20260502230733 | 43 | 341 | 3.0 | 3.0 | 0.00 | 0.00 | 0.00 | 38 | 1014.8 |
| 20260502230231 | 43 | 209 | 3.0 | 7.0 | 0.00 | 0.00 | 0.00 | 38 | 1014.7 |
| 20260502225727 | 44 | 67 | 2.0 | 3.0 | 0.00 | 0.00 | 0.00 | 38 | 1014.8 |
| 20260502225224 | 44 | 349 | 3.0 | 3.0 | 0.00 | 0.00 | 0.00 | 37 | 1014.7 |
| 20260502224720 | 44 | 271 | 1.0 | 1.0 | 0.00 | 0.00 | 0.00 | 37 | 1014.8 |
| 20260502224217 | 44 | 278 | 6.0 | 7.0 | 0.00 | 0.00 | 0.00 | 37 | 1014.8 |
| 20260502223714 | 43 | 303 | 4.0 | 6.0 | 0.00 | 0.00 | 0.00 | 37 | 1014.7 |
| 20260502223213 | 44 | 337 | 4.0 | 5.0 | 0.00 | 0.00 | 0.00 | 37 | 1014.8 |
| 20260502222710 | 44 | 230 | 2.0 | 3.0 | 0.00 | 0.00 | 0.00 | 37 | 1014.8 |
| 20260502222206 | 45 | 264 | 3.0 | 6.0 | 0.00 | 0.00 | 0.00 | 37 | 1014.7 |
| 20260502221702 | 46 | 234 | 1.0 | 1.0 | 0.00 | 0.00 | 0.00 | 37 | 1014.8 |
| 20260502221159 | 46 | 248 | 2.0 | 3.0 | 0.00 | 0.00 | 0.00 | 36 | 1014.7 |
| 20260502220655 | 45 | 189 | 3.0 | 5.0 | 0.00 | 0.00 | 0.00 | 38 | 1014.7 |
| 20260502220152 | 44 | 95 | 3.0 | 6.0 | 0.00 | 0.00 | 0.00 | 38 | 1014.9 |
| 20260502215649 | 44 | 269 | 3.0 | 3.0 | 0.00 | 0.00 | 0.00 | 38 | 1014.8 |
| 20260502215146 | 44 | 6 | 3.0 | 5.0 | 0.00 | 0.00 | 0.00 | 38 | 1014.8 |
| 20260502214643 | 44 | 62 | 3.0 | 3.0 | 0.00 | 0.00 | 0.00 | 39 | 1014.7 |
| 20260502214140 | 43 | 83 | 5.0 | 6.0 | 0.00 | 0.00 | 0.00 | 41 | 1014.9 |
| 20260502213637 | 43 | 342 | 2.0 | 5.0 | 0.00 | 0.00 | 0.00 | 42 | 1014.7 |
| 20260502213134 | 42 | 22 | 3.0 | 3.0 | 0.00 | 0.00 | 0.00 | 43 | 1015.0 |
| 20260502212633 | 42 | 25 | 2.0 | 3.0 | 0.00 | 0.00 | 0.00 | 46 | 1015.0 |
| 20260502212131 | 42 | 83 | 2.0 | 2.0 | 0.00 | 0.00 | 0.00 | 45 | 1014.9 |
| 20260502211626 | 42 | 293 | 2.0 | 2.0 | 0.00 | 0.00 | 0.00 | 45 | 1015.1 |